Weather History for Martinsville, VA

Change the Weather History Date:

Thursday, October 18, 2012

  Actual Average (KGSO) Record (KGSO)
Temperature  
Mean Temperature 56 °F 59 °F  
Max Temperature 71 °F 70 °F 89 °F (1938)
Min Temperature 42 °F 48 °F 25 °F (1943)
Degree Days  
Heating Degree Days 8 7  
Month to date heating degree days 89  
Since 1 July heating degree days 120  
Cooling Degree Days 0 1  
Month to date cooling degree days 27  
Year to date cooling degree days 1474  
Growing Degree Days 6 (Base 50)    
Moisture  
Dew Point 54 °F    
Average Humidity 88    
Maximum Humidity 100    
Minimum Humidity 64    
Precipitation  
Precipitation 0.00 in 0.10 in 1.97 in (1968)
Month to date precipitation 1.81  
Year to date precipitation 34.79  
Sea Level Pressure  
Sea Level Pressure 29.87 in    
Wind  
Wind Speed 0 mph (South)    
Max Wind Speed 6 mph    
Max Gust Speed -    
Visibility 9 miles    
Events      
T = Trace of Precipitation, MM = Missing Value Source: NWS Daily Summary

Daily Weather History Graph

Daily Weather History Graph

Search for Another Location

Airport:

Trip Planner

Search our weather history database for the weather conditions in past years. The results will help you decide how hot, cold, wet, or windy it might be!

Date:

Astronomy

Oct. 18, 2012 Rise Set
Actual Time 7:30 AM EDT 6:39 PM EDT
Civil Twilight 7:04 AM EDT 7:05 PM EDT
Nautical Twilight 6:34 AM EDT 7:35 PM EDT
Astronomical Twilight 6:04 AM EDT 8:05 PM EDT
Moon 11:05 AM EDT (10/18) 9:17 PM EDT (10/18)
Length of Visible Light 12h 00m
Length of Day
11h 08m
Waxing Crescent, 14% of the Moon is Illuminated
Oct 18
Waxing Crescent
Oct 21
First Quarter
Oct 29
Full
Nov 6
Last Quarter
Nov 13
New

Hourly Weather History & Observations

Time (EDT) Temp. Dew Point Humidity Pressure Visibility Wind Dir Wind Speed Gust Speed Precip Events Conditions
12:15 AM 46.4 °F 46.4 °F 100% 29.93 in 10.0 mi Calm Calm - N/A   Clear
12:35 AM 46.4 °F 46.4 °F 100% 29.93 in 10.0 mi Calm Calm - N/A   Clear
12:55 AM 44.6 °F 44.6 °F 100% 29.93 in 10.0 mi Calm Calm - N/A   Clear
1:15 AM 46.4 °F 46.4 °F 100% 29.93 in 10.0 mi Calm Calm - N/A   Clear
1:35 AM 44.6 °F 44.6 °F 100% 29.93 in 10.0 mi Calm Calm - N/A   Clear
1:55 AM 44.6 °F 44.6 °F 100% 29.93 in 7.0 mi Calm Calm - N/A   Clear
2:15 AM 44.6 °F 44.6 °F 100% 29.93 in 7.0 mi Calm Calm - N/A   Clear
2:35 AM 44.6 °F 44.6 °F 100% 29.93 in 7.0 mi Calm Calm - N/A   Clear
2:55 AM 42.8 °F 42.8 °F 100% 29.92 in 7.0 mi Calm Calm - N/A   Clear
3:15 AM 42.8 °F 42.8 °F 100% 29.93 in 7.0 mi Calm Calm - N/A   Clear
3:35 AM 42.8 °F 42.8 °F 100% 29.92 in 7.0 mi Calm Calm - N/A   Clear
3:55 AM 42.8 °F 42.8 °F 100% 29.93 in 7.0 mi Calm Calm - N/A   Scattered Clouds
4:15 AM 42.8 °F 42.8 °F 100% 29.93 in 10.0 mi Calm Calm - N/A   Scattered Clouds
4:35 AM 44.6 °F 44.6 °F 100% 29.93 in 10.0 mi Calm Calm - N/A   Mostly Cloudy
4:55 AM 44.6 °F 44.6 °F 100% 29.93 in 7.0 mi Calm Calm - N/A   Mostly Cloudy
5:15 AM 44.6 °F 44.6 °F 100% 29.93 in 7.0 mi Calm Calm - N/A   Mostly Cloudy
5:35 AM 44.6 °F 44.6 °F 100% 29.93 in 7.0 mi Calm Calm - N/A   Scattered Clouds
5:55 AM 44.6 °F 44.6 °F 100% 29.92 in 7.0 mi Calm Calm - N/A   Mostly Cloudy
6:15 AM 44.6 °F 44.6 °F 100% 29.93 in 10.0 mi Calm Calm - N/A   Mostly Cloudy
6:35 AM 46.4 °F 46.4 °F 100% 29.94 in 10.0 mi Calm Calm - N/A   Mostly Cloudy
6:55 AM 46.4 °F 46.4 °F 100% 29.93 in 10.0 mi Calm Calm - N/A   Scattered Clouds
7:35 AM 46.4 °F 46.4 °F 100% 29.92 in 10.0 mi Calm Calm - N/A   Mostly Cloudy
7:55 AM 46.4 °F 46.4 °F 100% 29.92 in 10.0 mi Calm Calm - N/A   Overcast
8:15 AM 48.2 °F 48.2 °F 100% 29.93 in 10.0 mi Calm Calm - N/A   Overcast
8:35 AM 50.0 °F 50.0 °F 100% 29.94 in 10.0 mi Calm Calm - N/A   Overcast
8:55 AM 51.8 °F 51.8 °F 100% 29.94 in 10.0 mi Calm Calm - N/A   Overcast
9:15 AM 53.6 °F 53.6 °F 100% 29.95 in 10.0 mi Calm Calm - N/A   Overcast
9:35 AM 55.4 °F 51.8 °F 88% 29.94 in 10.0 mi Calm Calm - N/A   Overcast
9:55 AM 55.4 °F 51.8 °F 88% 29.94 in 10.0 mi Calm Calm - N/A   Overcast
10:15 AM 55.4 °F 51.8 °F 88% 29.92 in 10.0 mi Calm Calm - N/A   Overcast
10:35 AM 57.2 °F 53.6 °F 88% 29.91 in 10.0 mi SE 3.5 mph - N/A   Overcast
10:55 AM 60.8 °F 53.6 °F 77% 29.90 in 10.0 mi Calm Calm - N/A   Overcast
11:15 AM 60.8 °F 53.6 °F 77% 29.90 in 10.0 mi SE 4.6 mph - N/A   Mostly Cloudy
11:35 AM 62.6 °F 53.6 °F 72% 29.90 in 10.0 mi South 5.8 mph - N/A   Scattered Clouds
11:55 AM 62.6 °F 55.4 °F 77% 29.89 in 10.0 mi South 3.5 mph - N/A   Clear
12:15 PM 64.4 °F 55.4 °F 73% 29.89 in 10.0 mi South 3.5 mph - N/A   Clear
12:35 PM 64.4 °F 55.4 °F 73% 29.88 in 10.0 mi SSW 3.5 mph - N/A   Scattered Clouds
12:55 PM 66.2 °F 57.2 °F 73% 29.88 in 10.0 mi South 3.5 mph - N/A   Mostly Cloudy
1:15 PM 66.2 °F 57.2 °F 73% 29.88 in 10.0 mi Calm Calm - N/A   Overcast
1:35 PM 68.0 °F 55.4 °F 64% 29.87 in 10.0 mi Calm Calm - N/A   Mostly Cloudy
1:55 PM 69.8 °F 57.2 °F 64% 29.86 in 10.0 mi South 3.5 mph - N/A   Mostly Cloudy
2:15 PM 69.8 °F 57.2 °F 64% 29.85 in 10.0 mi SSE 4.6 mph - N/A   Scattered Clouds
2:35 PM 69.8 °F 57.2 °F 64% 29.85 in 10.0 mi South 4.6 mph - N/A   Mostly Cloudy
2:55 PM 69.8 °F 57.2 °F 64% 29.84 in 10.0 mi Calm Calm - N/A   Mostly Cloudy
3:15 PM 69.8 °F 57.2 °F 64% 29.83 in 10.0 mi Calm Calm - N/A   Overcast
3:35 PM 69.8 °F 57.2 °F 64% 29.83 in 10.0 mi Calm Calm - N/A   Mostly Cloudy
3:55 PM 71.6 °F 59.0 °F 64% 29.82 in 10.0 mi Calm Calm - N/A   Scattered Clouds
4:15 PM 71.6 °F 59.0 °F 64% 29.81 in 10.0 mi Calm Calm - N/A   Scattered Clouds
4:35 PM 71.6 °F 59.0 °F 64% 29.81 in 10.0 mi Calm Calm - N/A   Mostly Cloudy
4:55 PM 71.6 °F 59.0 °F 64% 29.80 in 10.0 mi South 3.5 mph - N/A   Mostly Cloudy
5:15 PM 71.6 °F 59.0 °F 64% 29.80 in 10.0 mi Calm Calm - N/A   Overcast
5:35 PM 71.6 °F 59.0 °F 64% 29.80 in 10.0 mi Calm Calm - N/A   Overcast
5:55 PM 69.8 °F 60.8 °F 73% 29.80 in 10.0 mi Calm Calm - N/A   Overcast
6:15 PM 69.8 °F 60.8 °F 73% 29.81 in 10.0 mi Calm Calm - N/A   Overcast
6:35 PM 66.2 °F 60.8 °F 83% 29.81 in 10.0 mi Calm Calm - N/A   Mostly Cloudy
6:55 PM 66.2 °F 60.8 °F 83% 29.81 in 10.0 mi Calm Calm - N/A   Mostly Cloudy
7:15 PM 64.4 °F 60.8 °F 88% 29.82 in 10.0 mi Calm Calm - N/A   Mostly Cloudy
7:35 PM 64.4 °F 60.8 °F 88% 29.83 in 10.0 mi Calm Calm - N/A   Scattered Clouds
7:55 PM 64.4 °F 60.8 °F 88% 29.82 in 10.0 mi Calm Calm - N/A   Mostly Cloudy
8:15 PM 62.6 °F 62.6 °F 100% 29.82 in 10.0 mi Calm Calm - N/A   Overcast
8:35 PM 62.6 °F 60.8 °F 94% 29.81 in 10.0 mi Calm Calm - N/A   Overcast
8:55 PM 62.6 °F 62.6 °F 100% 29.81 in 10.0 mi Calm Calm - N/A   Overcast
9:15 PM 62.6 °F 62.6 °F 100% 29.81 in 10.0 mi Calm Calm - N/A   Mostly Cloudy
9:35 PM 62.6 °F 62.6 °F 100% 29.81 in 10.0 mi Calm Calm - N/A   Mostly Cloudy
9:55 PM 62.6 °F 62.6 °F 100% 29.81 in 10.0 mi Calm Calm - N/A   Overcast
10:15 PM 62.6 °F 62.6 °F 100% 29.81 in 7.0 mi Calm Calm - N/A   Overcast
10:35 PM 60.8 °F 60.8 °F 100% 29.81 in 7.0 mi Calm Calm - N/A   Scattered Clouds
10:55 PM 60.8 °F 60.8 °F 100% 29.81 in 7.0 mi Calm Calm - N/A   Mostly Cloudy
11:15 PM 62.6 °F 62.6 °F 100% 29.80 in 7.0 mi Calm Calm - N/A   Scattered Clouds
11:35 PM 60.8 °F 60.8 °F 100% 29.80 in 7.0 mi Calm Calm - N/A   Scattered Clouds
11:55 PM 59.0 °F 59.0 °F 100% 29.79 in 0.8 mi Calm Calm - N/A   Mist